| time (UTC) | temp F | wind direction | speed knots | gust knots | rain 1hr in | rain 24hr in | rain mn in | humidity % | barometer mb |
| 20260509124702 | 51 | 186 | 4.3 | 7.8 | 0.00 | 1.05 | 0.00 | 83 | 998.9 |
| 20260509124202 | 51 | 259 | 3.5 | 6.1 | 0.00 | 1.05 | 0.00 | 83 | 999.1 |
| 20260509123703 | 51 | 199 | 2.6 | 7.0 | 0.00 | 1.05 | 0.00 | 84 | 999.0 |
| 20260509123202 | 50 | 172 | 3.5 | 10.4 | 0.00 | 1.05 | 0.00 | 85 | 998.8 |
| 20260509122703 | 50 | 226 | 2.6 | 8.7 | 0.00 | 1.05 | 0.00 | 86 | 998.9 |
| 20260509121702 | 50 | 178 | 3.5 | 6.1 | 0.00 | 1.05 | 0.00 | 86 | 998.5 |
| 20260509121203 | 50 | 207 | 4.3 | 7.8 | 0.00 | 1.05 | 0.00 | 87 | 998.6 |
| 20260509120703 | 50 | 247 | 3.5 | 7.0 | 0.00 | 1.05 | 0.00 | 87 | 998.6 |
| 20260509120203 | 50 | 204 | 2.6 | 6.1 | 0.00 | 1.06 | 0.00 | 87 | 998.5 |
| 20260509115702 | 49 | 187 | 4.3 | 11.3 | 0.00 | 1.07 | 0.00 | 86 | 998.5 |
| 20260509115203 | 50 | 193 | 3.5 | 7.0 | 0.00 | 1.07 | 0.00 | 87 | 998.8 |
| 20260509114702 | 50 | 201 | 4.3 | 7.8 | 0.00 | 1.07 | 0.00 | 87 | 998.7 |
| 20260509114203 | 50 | 190 | 5.2 | 10.4 | 0.00 | 1.07 | 0.00 | 87 | 998.7 |
| 20260509113702 | 49 | 173 | 4.3 | 8.7 | 0.00 | 1.07 | 0.00 | 87 | 998.5 |
| 20260509113203 | 49 | 182 | 3.5 | 11.3 | 0.00 | 1.07 | 0.00 | 87 | 998.5 |
| 20260509112703 | 50 | 199 | 2.6 | 10.4 | 0.00 | 1.07 | 0.00 | 87 | 998.5 |
| 20260509112202 | 50 | 201 | 3.5 | 7.8 | 0.00 | 1.07 | 0.00 | 87 | 998.6 |
| 20260509111703 | 50 | 228 | 4.3 | 10.4 | 0.00 | 1.07 | 0.00 | 87 | 998.6 |
| 20260509111203 | 50 | 187 | 3.5 | 10.4 | 0.00 | 1.07 | 0.00 | 87 | 998.6 |
| 20260509110702 | 50 | 204 | 2.6 | 7.8 | 0.00 | 1.07 | 0.00 | 86 | 998.6 |
| 20260509110203 | 50 | 174 | 2.6 | 12.2 | 0.00 | 1.07 | 0.00 | 86 | 998.5 |
| 20260509105703 | 50 | 187 | 3.5 | 11.3 | 0.00 | 1.07 | 0.00 | 86 | 998.7 |
| 20260509105203 | 50 | 201 | 4.3 | 7.0 | 0.00 | 1.07 | 0.00 | 86 | 998.5 |
| 20260509104702 | 51 | 182 | 4.3 | 14.8 | 0.00 | 1.07 | 0.00 | 85 | 998.6 |
| 20260509104203 | 51 | 182 | 2.6 | 10.4 | 0.00 | 1.08 | 0.00 | 85 | 998.6 |
| 20260509103703 | 51 | 185 | 4.3 | 10.4 | 0.00 | 1.08 | 0.00 | 86 | 998.8 |
| 20260509103203 | 51 | 172 | 4.3 | 12.2 | 0.00 | 1.08 | 0.00 | 85 | 998.7 |
| 20260509102703 | 51 | 189 | 3.5 | 7.8 | 0.00 | 1.08 | 0.00 | 85 | 998.7 |
| 20260509102203 | 51 | 260 | 3.5 | 11.3 | 0.00 | 1.08 | 0.00 | 85 | 998.7 |
| 20260509101702 | 51 | 171 | 5.2 | 13.0 | 0.00 | 1.11 | 0.00 | 85 | 998.8 |
| 20260509101203 | 51 | 224 | 5.2 | 11.3 | 0.00 | 1.11 | 0.00 | 85 | 998.7 |
| 20260509100703 | 51 | 213 | 5.2 | 12.2 | 0.00 | 1.11 | 0.00 | 84 | 998.9 |
| 20260509095203 | 52 | 239 | 5.2 | 13.9 | 0.00 | 1.11 | 0.00 | 83 | 999.0 |
| 20260509094702 | 52 | 223 | 6.1 | 14.8 | 0.00 | 1.11 | 0.00 | 83 | 999.1 |
| 20260509093703 | 52 | 209 | 3.5 | 8.7 | 0.00 | 1.11 | 0.00 | 82 | 999.2 |
| 20260509093202 | 53 | 202 | 5.2 | 13.9 | 0.00 | 1.11 | 0.00 | 82 | 999.3 |
| 20260509092703 | 52 | 183 | 2.6 | 13.0 | 0.00 | 1.11 | 0.00 | 81 | 999.3 |
| 20260509092203 | 53 | 218 | 4.3 | 11.3 | 0.00 | 1.11 | 0.00 | 81 | 999.4 |
| 20260509091703 | 53 | 200 | 4.3 | 10.4 | 0.00 | 1.11 | 0.00 | 80 | 999.5 |
| 20260509091203 | 53 | 178 | 5.2 | 10.4 | 0.00 | 1.12 | 0.00 | 79 | 999.5 |
| 20260509090203 | 53 | 224 | 5.2 | 13.0 | 0.00 | 1.12 | 0.00 | 79 | 999.7 |
| 20260509085703 | 53 | 210 | 5.2 | 10.4 | 0.00 | 1.12 | 0.00 | 78 | 999.7 |
| 20260509083703 | 53 | 194 | 2.6 | 7.0 | 0.00 | 1.14 | 0.00 | 77 | 999.7 |
| 20260509083203 | 53 | 210 | 2.6 | 6.1 | 0.00 | 1.14 | 0.00 | 76 | 999.9 |
| 20260509082703 | 53 | 201 | 3.5 | 7.0 | 0.00 | 1.14 | 0.00 | 75 | 999.9 |
| 20260509082203 | 53 | 187 | 7.0 | 13.9 | 0.00 | 1.15 | 0.00 | 75 | 1000.0 |
| 20260509081703 | 53 | 185 | 2.6 | 10.4 | 0.00 | 1.15 | 0.00 | 73 | 1000.0 |
| 20260509081203 | 53 | 204 | 3.5 | 8.7 | 0.00 | 1.15 | 0.00 | 73 | 1000.0 |
| 20260509080703 | 53 | 178 | 3.5 | 7.0 | 0.00 | 1.16 | 0.00 | 72 | 1000.1 |
| 20260509080203 | 54 | 188 | 4.3 | 8.7 | 0.00 | 1.17 | 0.00 | 71 | 1000.1 |
| 20260509075703 | 54 | 224 | 2.6 | 10.4 | 0.00 | 1.17 | 0.00 | 71 | 1000.0 |
| 20260509074704 | 55 | 205 | 3.5 | 6.1 | 0.00 | 1.17 | 0.00 | 70 | 1000.4 |
| 20260509074203 | 55 | 168 | 2.6 | 7.8 | 0.00 | 1.17 | 0.00 | 69 | 1000.5 |
| 20260509073703 | 56 | 243 | 3.5 | 7.8 | 0.00 | 1.17 | 0.00 | 69 | 1000.7 |
| 20260509073203 | 56 | 173 | 2.6 | 7.8 | 0.00 | 1.18 | 0.00 | 68 | 1000.8 |
| 20260509072703 | 57 | 189 | 6.1 | 13.0 | 0.00 | 1.18 | 0.00 | 67 | 1000.8 |
| 20260509072203 | 57 | 182 | 4.3 | 10.4 | 0.00 | 1.18 | 0.00 | 66 | 1000.9 |
| 20260509071703 | 57 | 194 | 6.1 | 14.8 | 0.00 | 1.18 | 0.00 | 66 | 1000.9 |
| 20260509071203 | 57 | 175 | 4.3 | 10.4 | 0.00 | 1.18 | 0.00 | 66 | 1001.1 |
| 20260509070704 | 57 | 181 | 3.5 | 8.7 | 0.00 | 1.20 | 0.00 | 66 | 1001.0 |
| 20260509070203 | 57 | 187 | 3.5 | 13.9 | 0.00 | 1.21 | 0.00 | 66 | 1001.2 |
| 20260509065703 | 57 | 191 | 2.6 | 6.1 | 0.00 | 1.21 | 0.00 | 65 | 1001.4 |
| 20260509065204 | 57 | 194 | 3.5 | 13.0 | 0.00 | 1.22 | 0.00 | 64 | 1001.5 |
| 20260509064703 | 57 | 198 | 2.6 | 10.4 | 0.00 | 1.23 | 0.00 | 63 | 1001.7 |
| 20260509064203 | 56 | 183 | 2.6 | 10.4 | 0.00 | 1.23 | 0.00 | 60 | 1001.7 |
| 20260509063204 | 56 | 188 | 1.7 | 5.2 | 0.00 | 1.25 | 0.00 | 57 | 1001.9 |
| 20260509062703 | 56 | 178 | 1.7 | 2.6 | 0.00 | 1.25 | 0.00 | 56 | 1001.8 |
| 20260509062204 | 55 | 182 | 1.7 | 5.2 | 0.00 | 1.25 | 0.00 | 54 | 1002.1 |
| 20260509061703 | 55 | 176 | 1.7 | 7.0 | 0.00 | 1.25 | 0.00 | 53 | 1002.2 |
| 20260509061204 | 55 | 204 | 0.9 | 4.3 | 0.00 | 1.25 | 0.00 | 52 | 1002.3 |
| 20260509060703 | 55 | 192 | 0.9 | 2.6 | 0.00 | 1.25 | 0.00 | 50 | 1002.4 |
| 20260509060203 | 55 | 201 | 0.9 | 2.6 | 0.00 | 1.25 | 0.00 | 49 | 1002.5 |
| 20260509055703 | 55 | 167 | 1.7 | 4.3 | 0.00 | 1.25 | 0.00 | 49 | 1002.7 |
| 20260509055203 | 55 | 157 | 0.9 | 2.6 | 0.00 | 1.25 | 0.00 | 48 | 1002.6 |
| 20260509054704 | 54 | 178 | 0.9 | 4.3 | 0.00 | 1.25 | 0.00 | 48 | 1002.7 |
| 20260509054203 | 54 | 185 | 0.0 | 1.7 | 0.00 | 1.25 | 0.00 | 48 | 1002.8 |
| 20260509053704 | 54 | 184 | 0.0 | 1.7 | 0.00 | 1.25 | 0.00 | 47 | 1002.9 |
| 20260509053203 | 54 | 187 | 0.9 | 2.6 | 0.00 | 1.25 | 0.00 | 46 | 1003.0 |
| 20260509052704 | 54 | 299 | 1.7 | 2.6 | 0.00 | 1.25 | 0.00 | 45 | 1003.1 |
| 20260509052204 | 54 | 178 | 0.0 | 0.9 | 0.00 | 1.25 | 0.00 | 42 | 1003.1 |
| 20260509051703 | 54 | 177 | 0.9 | 4.3 | 0.00 | 1.25 | 0.00 | 41 | 1003.1 |
| 20260509051204 | 54 | 228 | 0.9 | 2.6 | 0.00 | 1.25 | 0.00 | 40 | 1003.1 |
| 20260509050703 | 54 | 186 | 1.7 | 2.6 | 0.00 | 1.25 | 0.00 | 40 | 1003.1 |
| 20260509050204 | 54 | 165 | 0.9 | 0.9 | 0.00 | 1.25 | 0.00 | 39 | 1003.1 |
| 20260509045204 | 54 | 246 | 0.0 | 2.6 | 0.00 | 0.00 | 0.00 | 39 | 1003.2 |
| 20260509044203 | 53 | 194 | 0.0 | 0.9 | 0.00 | 0.00 | 0.00 | 38 | 1003.3 |
| 20260509043704 | 54 | 194 | 0.0 | 0.9 | 0.00 | 0.00 | 0.00 | 38 | 1003.3 |
| 20260509043204 | 54 | 194 | 0.0 | 0.0 | 0.00 | 0.00 | 0.00 | 40 | 1003.4 |
| 20260509042704 | 54 | 194 | 0.0 | 0.0 | 0.00 | 0.00 | 0.00 | 35 | 1003.5 |
| 20260509041704 | 55 | 194 | 0.0 | 0.9 | 0.00 | 0.00 | 0.00 | 35 | 1003.6 |
| 20260509041203 | 55 | 194 | 0.0 | 1.7 | 0.00 | 0.00 | 0.00 | 33 | 1003.7 |
| 20260509040703 | 55 | 194 | 0.0 | 2.6 | 0.00 | 0.00 | 0.00 | 34 | 1003.7 |
| 20260509040203 | 55 | 178 | 0.9 | 4.3 | 0.00 | 0.00 | 0.00 | 34 | 1003.7 |
| 20260509035203 | 55 | 217 | 0.9 | 1.7 | 0.00 | 0.00 | 0.00 | 33 | 1003.9 |
| 20260509034702 | 55 | 210 | 0.9 | 2.6 | 0.00 | 0.00 | 0.00 | 33 | 1004.1 |
| 20260509034203 | 55 | 178 | 1.7 | 5.2 | 0.00 | 0.00 | 0.00 | 33 | 1004.2 |
| 20260509033702 | 55 | 174 | 0.9 | 2.6 | 0.00 | 0.00 | 0.00 | 33 | 1004.2 |
| 20260509033203 | 55 | 195 | 0.0 | 2.6 | 0.00 | 0.00 | 0.00 | 34 | 1004.3 |
| 20260509032203 | 55 | 185 | 0.9 | 2.6 | 0.00 | 0.00 | 0.00 | 34 | 1004.3 |
| 20260509031702 | 55 | 172 | 1.7 | 2.6 | 0.00 | 0.00 | 0.00 | 34 | 1004.2 |
| 20260509031203 | 55 | 182 | 0.9 | 2.6 | 0.00 | 0.00 | 0.00 | 35 | 1004.2 |
| 20260509030702 | 55 | 167 | 0.0 | 2.6 | 0.00 | 0.00 | 0.00 | 35 | 1004.3 |
| 20260509030203 | 55 | 172 | 0.9 | 2.6 | 0.00 | 0.00 | 0.00 | 35 | 1004.4 |
| 20260509025202 | 54 | 172 | 1.7 | 5.2 | 0.00 | 0.00 | 0.00 | 37 | 1004.5 |
| 20260509024702 | 54 | 169 | 0.0 | 1.7 | 0.00 | 0.00 | 0.00 | 38 | 1004.5 |
| 20260509024203 | 54 | 176 | 0.9 | 2.6 | 0.00 | 0.00 | 0.00 | 40 | 1004.5 |
| 20260509023702 | 53 | 173 | 0.0 | 2.6 | 0.00 | 0.00 | 0.00 | 42 | 1004.5 |
| 20260509023203 | 53 | 156 | 0.0 | 1.7 | 0.00 | 0.00 | 0.00 | 43 | 1004.5 |
| 20260509022703 | 53 | 155 | 0.0 | 0.9 | 0.00 | 0.00 | 0.00 | 42 | 1004.5 |
| 20260509022202 | 53 | 155 | 0.0 | 0.9 | 0.00 | 0.00 | 0.00 | 44 | 1004.6 |
| 20260509021703 | 53 | 155 | 0.0 | 0.0 | 0.00 | 0.00 | 0.00 | 44 | 1004.6 |
| 20260509021202 | 53 | 155 | 0.0 | 0.0 | 0.00 | 0.00 | 0.00 | 46 | 1004.6 |
| 20260509020703 | 53 | 155 | 0.0 | 0.0 | 0.00 | 0.00 | 0.00 | 44 | 1004.6 |
| 20260509020203 | 53 | 155 | 0.0 | 0.9 | 0.00 | 0.00 | 0.00 | 44 | 1004.6 |
| 20260509015703 | 53 | 155 | 0.0 | 0.9 | 0.00 | 0.00 | 0.00 | 43 | 1004.5 |
| 20260509015202 | 53 | 155 | 0.0 | 0.9 | 0.00 | 0.00 | 0.00 | 43 | 1004.5 |
| 20260509014703 | 53 | 155 | 0.0 | 0.9 | 0.00 | 0.00 | 0.00 | 42 | 1004.5 |
| 20260509014202 | 53 | 155 | 0.0 | 0.9 | 0.00 | 0.00 | 0.00 | 41 | 1004.5 |
| 20260509013703 | 54 | 155 | 0.0 | 1.7 | 0.00 | 0.00 | 0.00 | 41 | 1004.6 |
| 20260509013203 | 54 | 155 | 0.0 | 0.9 | 0.00 | 0.00 | 0.00 | 42 | 1004.7 |
| 20260509012703 | 54 | 155 | 0.0 | 1.7 | 0.00 | 0.00 | 0.00 | 41 | 1004.6 |
| 20260509012203 | 54 | 155 | 0.0 | 2.6 | 0.00 | 0.00 | 0.00 | 41 | 1004.7 |
| 20260509011703 | 54 | 191 | 0.0 | 0.9 | 0.00 | 0.00 | 0.00 | 41 | 1004.7 |
| 20260509011202 | 55 | 190 | 0.0 | 0.0 | 0.00 | 0.00 | 0.00 | 42 | 1004.7 |
| 20260509010703 | 55 | 190 | 0.0 | 0.0 | 0.00 | 0.00 | 0.00 | 39 | 1004.7 |
| 20260509010203 | 55 | 190 | 0.0 | 0.9 | 0.00 | 0.00 | 0.00 | 40 | 1004.7 |
| 20260509005203 | 56 | 190 | 0.0 | 0.9 | 0.00 | 0.00 | 0.00 | 40 | 1004.7 |
| 20260509004703 | 57 | 190 | 0.0 | 0.0 | 0.00 | 0.00 | 0.00 | 36 | 1004.7 |
| 20260509004203 | 57 | 190 | 0.0 | 1.7 | 0.00 | 0.00 | 0.00 | 36 | 1004.7 |
| 20260509003703 | 57 | 191 | 0.9 | 1.7 | 0.00 | 0.00 | 0.00 | 35 | 1004.7 |
| 20260509003203 | 57 | 178 | 1.7 | 4.3 | 0.00 | 0.00 | 0.00 | 35 | 1004.7 |
| 20260509002702 | 57 | 181 | 0.9 | 2.6 | 0.00 | 0.00 | 0.00 | 36 | 1004.7 |
| 20260509002203 | 58 | 184 | 0.0 | 1.7 | 0.00 | 0.00 | 0.00 | 36 | 1004.8 |
| 20260509001203 | 58 | 176 | 0.0 | 1.7 | 0.00 | 0.00 | 0.00 | 35 | 1004.8 |
| 20260509000204 | 58 | 157 | 1.7 | 6.1 | 0.00 | 0.00 | 0.00 | 35 | 1004.9 |
| 20260508235703 | 58 | 192 | 1.7 | 4.3 | 0.00 | 0.00 | 0.00 | 35 | 1004.9 |
| 20260508234202 | 57 | 177 | 0.9 | 2.6 | 0.00 | 0.00 | 0.00 | 37 | 1005.1 |
| 20260508233703 | 57 | 182 | 1.7 | 7.0 | 0.00 | 0.00 | 0.00 | 37 | 1005.2 |
| 20260508233203 | 57 | 177 | 1.7 | 2.6 | 0.00 | 0.00 | 0.00 | 38 | 1005.3 |
| 20260508232703 | 57 | 188 | 0.9 | 2.6 | 0.00 | 0.00 | 0.00 | 38 | 1005.3 |
| 20260508232203 | 57 | 170 | 1.7 | 5.2 | 0.00 | 0.00 | 0.00 | 37 | 1005.4 |
| 20260508231703 | 57 | 228 | 1.7 | 10.4 | 0.00 | 0.00 | 0.00 | 37 | 1005.4 |
| 20260508231203 | 57 | 172 | 1.7 | 6.1 | 0.00 | 0.00 | 0.00 | 37 | 1005.5 |
| 20260508230703 | 57 | 187 | 1.7 | 5.2 | 0.00 | 0.00 | 0.00 | 37 | 1005.6 |
| 20260508230203 | 57 | 182 | 2.6 | 7.0 | 0.00 | 0.00 | 0.00 | 36 | 1005.5 |
| 20260508225203 | 57 | 172 | 2.6 | 7.8 | 0.00 | 0.00 | 0.00 | 37 | 1005.5 |
| 20260508224704 | 57 | 200 | 3.5 | 7.8 | 0.00 | 0.00 | 0.00 | 36 | 1005.6 |
| 20260508224203 | 57 | 177 | 3.5 | 6.1 | 0.00 | 0.00 | 0.00 | 37 | 1005.7 |
| 20260508223702 | 58 | 175 | 4.3 | 8.7 | 0.00 | 0.00 | 0.00 | 37 | 1005.7 |
| 20260508223203 | 58 | 195 | 4.3 | 10.4 | 0.00 | 0.00 | 0.00 | 36 | 1005.7 |
| 20260508222203 | 58 | 178 | 4.3 | 8.7 | 0.00 | 0.00 | 0.00 | 36 | 1005.8 |
| 20260508221704 | 58 | 202 | 4.3 | 8.7 | 0.00 | 0.00 | 0.00 | 36 | 1005.8 |
| 20260508220203 | 58 | 202 | 4.3 | 10.4 | 0.00 | 0.00 | 0.00 | 36 | 1005.9 |
| 20260508215703 | 58 | 191 | 2.6 | 7.0 | 0.00 | 0.00 | 0.00 | 37 | 1006.0 |
| 20260508215203 | 58 | 168 | 4.3 | 7.8 | 0.00 | 0.00 | 0.00 | 37 | 1006.0 |
| 20260508214703 | 58 | 205 | 5.2 | 10.4 | 0.00 | 0.00 | 0.00 | 36 | 1006.0 |
| 20260508214203 | 58 | 192 | 3.5 | 6.1 | 0.00 | 0.00 | 0.00 | 36 | 1006.0 |
| 20260508213704 | 58 | 194 | 4.3 | 10.4 | 0.00 | 0.00 | 0.00 | 36 | 1006.1 |
| 20260508213204 | 58 | 203 | 2.6 | 12.2 | 0.00 | 0.00 | 0.00 | 36 | 1006.0 |
| 20260508212703 | 58 | 196 | 4.3 | 10.4 | 0.00 | 0.00 | 0.00 | 36 | 1006.1 |
| 20260508212204 | 58 | 186 | 5.2 | 8.7 | 0.00 | 0.00 | 0.00 | 35 | 1006.2 |
| 20260508211703 | 58 | 167 | 5.2 | 10.4 | 0.00 | 0.00 | 0.00 | 36 | 1006.2 |
| 20260508211203 | 58 | 182 | 2.6 | 8.7 | 0.00 | 0.00 | 0.00 | 37 | 1006.3 |
| 20260508210704 | 57 | 205 | 5.2 | 10.4 | 0.00 | 0.00 | 0.00 | 36 | 1006.4 |
| 20260508210203 | 57 | 181 | 7.8 | 18.2 | 0.00 | 0.00 | 0.00 | 34 | 1006.4 |
| 20260508205704 | 57 | 211 | 5.2 | 13.0 | 0.00 | 0.00 | 0.00 | 36 | 1006.4 |
| 20260508205204 | 57 | 184 | 4.3 | 8.7 | 0.00 | 0.00 | 0.00 | 36 | 1006.5 |
| 20260508204704 | 58 | 170 | 6.1 | 14.8 | 0.00 | 0.00 | 0.00 | 36 | 1006.6 |
| 20260508204203 | 58 | 162 | 7.0 | 17.4 | 0.00 | 0.00 | 0.00 | 35 | 1006.7 |
| 20260508203703 | 58 | 212 | 4.3 | 7.8 | 0.00 | 0.00 | 0.00 | 37 | 1006.7 |
| 20260508203203 | 58 | 211 | 4.3 | 8.7 | 0.00 | 0.00 | 0.00 | 35 | 1006.8 |
| 20260508202704 | 59 | 202 | 3.5 | 10.4 | 0.00 | 0.00 | 0.00 | 37 | 1006.8 |
| 20260508202203 | 58 | 181 | 3.5 | 8.7 | 0.00 | 0.00 | 0.00 | 35 | 1006.9 |
| 20260508201703 | 59 | 180 | 7.0 | 18.2 | 0.00 | 0.00 | 0.00 | 32 | 1006.8 |
| 20260508201204 | 59 | 227 | 2.6 | 7.8 | 0.00 | 0.00 | 0.00 | 35 | 1006.9 |
| 20260508200704 | 58 | 210 | 5.2 | 10.4 | 0.00 | 0.00 | 0.00 | 34 | 1006.9 |
| 20260508200203 | 58 | 188 | 6.1 | 13.9 | 0.00 | 0.00 | 0.00 | 34 | 1007.0 |
| 20260508195703 | 58 | 183 | 5.2 | 8.7 | 0.00 | 0.00 | 0.00 | 33 | 1007.1 |
| 20260508194704 | 58 | 192 | 5.2 | 11.3 | 0.00 | 0.00 | 0.00 | 33 | 1007.3 |
| 20260508194203 | 58 | 178 | 5.2 | 10.4 | 0.00 | 0.00 | 0.00 | 33 | 1007.3 |
| 20260508193704 | 58 | 183 | 6.1 | 14.8 | 0.00 | 0.00 | 0.00 | 32 | 1007.4 |
| 20260508192203 | 59 | 191 | 3.5 | 10.4 | 0.00 | 0.00 | 0.00 | 35 | 1007.4 |
| 20260508190704 | 58 | 236 | 4.3 | 7.0 | 0.00 | 0.00 | 0.00 | 38 | 1007.6 |
| 20260508190202 | 58 | 180 | 4.3 | 8.7 | 0.00 | 0.00 | 0.00 | 38 | 1007.7 |
| 20260508185702 | 58 | 180 | 6.1 | 13.0 | 0.00 | 0.00 | 0.00 | 37 | 1007.9 |
| 20260508185203 | 58 | 246 | 4.3 | 8.7 | 0.00 | 0.00 | 0.00 | 38 | 1007.9 |
| 20260508184702 | 57 | 238 | 2.6 | 10.4 | 0.00 | 0.00 | 0.00 | 40 | 1008.0 |
| 20260508184202 | 57 | 229 | 2.6 | 8.7 | 0.00 | 0.00 | 0.00 | 41 | 1008.0 |
| 20260508183702 | 57 | 186 | 6.1 | 13.9 | 0.00 | 0.00 | 0.00 | 39 | 1008.1 |
| 20260508183202 | 57 | 191 | 4.3 | 12.2 | 0.00 | 0.00 | 0.00 | 42 | 1008.1 |
| 20260508182702 | 57 | 223 | 4.3 | 12.2 | 0.00 | 0.00 | 0.00 | 41 | 1008.2 |
| 20260508181703 | 56 | 220 | 3.5 | 7.0 | 0.00 | 0.00 | 0.00 | 46 | 1008.4 |
| 20260508181202 | 56 | 206 | 6.1 | 13.0 | 0.00 | 0.00 | 0.00 | 45 | 1008.6 |
| 20260508180702 | 56 | 224 | 4.3 | 13.0 | 0.00 | 0.00 | 0.00 | 46 | 1008.7 |
| 20260508180203 | 56 | 186 | 4.3 | 10.4 | 0.00 | 0.00 | 0.00 | 46 | 1008.7 |
| 20260508174702 | 56 | 208 | 2.6 | 7.8 | 0.00 | 0.00 | 0.00 | 48 | 1008.9 |
| 20260508174202 | 56 | 164 | 4.3 | 12.2 | 0.00 | 0.00 | 0.00 | 48 | 1009.0 |
| 20260508173703 | 56 | 184 | 5.2 | 8.7 | 0.00 | 0.00 | 0.00 | 50 | 1009.1 |
| 20260508173203 | 55 | 250 | 2.6 | 7.8 | 0.00 | 0.00 | 0.00 | 53 | 1009.2 |
| 20260508172702 | 55 | 177 | 4.3 | 10.4 | 0.00 | 0.00 | 0.00 | 52 | 1009.3 |
| 20260508172203 | 55 | 199 | 3.5 | 10.4 | 0.00 | 0.00 | 0.00 | 53 | 1009.4 |
| 20260508171702 | 55 | 206 | 2.6 | 6.1 | 0.00 | 0.00 | 0.00 | 56 | 1009.5 |
| 20260508171202 | 55 | 243 | 4.3 | 7.0 | 0.00 | 0.00 | 0.00 | 56 | 1009.5 |
| 20260508170202 | 54 | 176 | 4.3 | 8.7 | 0.00 | 0.00 | 0.00 | 57 | 1009.6 |
| 20260508165703 | 54 | 219 | 4.3 | 10.4 | 0.00 | 0.00 | 0.00 | 56 | 1009.7 |
| 20260508165203 | 54 | 178 | 5.2 | 13.0 | 0.00 | 0.00 | 0.00 | 56 | 1009.7 |
| 20260508164702 | 54 | 201 | 4.3 | 7.0 | 0.00 | 0.00 | 0.00 | 57 | 1009.7 |
| 20260508164203 | 54 | 162 | 2.6 | 7.8 | 0.00 | 0.00 | 0.00 | 57 | 1009.8 |
| 20260508163703 | 54 | 235 | 4.3 | 8.7 | 0.00 | 0.00 | 0.00 | 57 | 1009.8 |
| 20260508163203 | 54 | 188 | 5.2 | 8.7 | 0.00 | 0.00 | 0.00 | 57 | 1009.9 |
| 20260508162703 | 54 | 198 | 5.2 | 13.9 | 0.00 | 0.00 | 0.00 | 56 | 1009.8 |
| 20260508161703 | 54 | 213 | 4.3 | 10.4 | 0.00 | 0.00 | 0.00 | 58 | 1009.8 |
| 20260508161203 | 54 | 199 | 6.1 | 12.2 | 0.00 | 0.00 | 0.00 | 56 | 1009.9 |
| 20260508160703 | 54 | 268 | 2.6 | 8.7 | 0.00 | 0.00 | 0.00 | 55 | 1009.9 |
| 20260508160203 | 54 | 196 | 4.3 | 7.8 | 0.00 | 0.00 | 0.00 | 55 | 1009.9 |
| 20260508155703 | 54 | 224 | 4.3 | 7.8 | 0.00 | 0.00 | 0.00 | 56 | 1009.8 |
| 20260508155203 | 54 | 174 | 4.3 | 11.3 | 0.00 | 0.00 | 0.00 | 55 | 1009.8 |
| 20260508154702 | 53 | 196 | 2.6 | 7.0 | 0.00 | 0.00 | 0.00 | 57 | 1009.9 |
| 20260508153703 | 53 | 174 | 5.2 | 12.2 | 0.00 | 0.00 | 0.00 | 57 | 1009.9 |
| 20260508153203 | 53 | 190 | 4.3 | 13.9 | 0.00 | 0.00 | 0.00 | 57 | 1009.9 |
| 20260508152703 | 53 | 248 | 2.6 | 7.8 | 0.00 | 0.00 | 0.00 | 58 | 1010.0 |
| 20260508152202 | 53 | 238 | 4.3 | 11.3 | 0.00 | 0.00 | 0.00 | 59 | 1010.0 |
| 20260508151703 | 53 | 187 | 5.2 | 10.4 | 0.00 | 0.00 | 0.00 | 57 | 1010.0 |
| 20260508151203 | 52 | 166 | 3.5 | 8.7 | 0.00 | 0.00 | 0.00 | 60 | 1010.0 |
| 20260508150703 | 52 | 228 | 3.5 | 8.7 | 0.00 | 0.00 | 0.00 | 61 | 1010.0 |
| 20260508150203 | 52 | 242 | 4.3 | 10.4 | 0.00 | 0.00 | 0.00 | 62 | 1010.0 |
| 20260508145703 | 52 | 250 | 2.6 | 7.8 | 0.00 | 0.00 | 0.00 | 62 | 1010.0 |
| 20260508145203 | 51 | 234 | 4.3 | 10.4 | 0.00 | 0.00 | 0.00 | 62 | 1010.1 |
| 20260508144703 | 51 | 213 | 4.3 | 8.7 | 0.00 | 0.00 | 0.00 | 62 | 1010.2 |
| 20260508144204 | 51 | 190 | 5.2 | 11.3 | 0.00 | 0.00 | 0.00 | 62 | 1010.2 |
| 20260508143703 | 51 | 183 | 4.3 | 11.3 | 0.00 | 0.00 | 0.00 | 63 | 1010.2 |
| 20260508143203 | 51 | 240 | 3.5 | 7.0 | 0.00 | 0.00 | 0.00 | 63 | 1010.2 |
| 20260508142703 | 51 | 198 | 4.3 | 10.4 | 0.00 | 0.00 | 0.00 | 64 | 1010.2 |
| 20260508142203 | 51 | 253 | 4.3 | 8.7 | 0.00 | 0.00 | 0.00 | 64 | 1010.2 |
| 20260508141703 | 51 | 201 | 3.5 | 7.8 | 0.00 | 0.00 | 0.00 | 64 | 1010.2 |
| 20260508140703 | 50 | 204 | 3.5 | 6.1 | 0.00 | 0.00 | 0.00 | 64 | 1010.2 |
| 20260508140203 | 50 | 200 | 3.5 | 11.3 | 0.00 | 0.00 | 0.00 | 65 | 1010.1 |
| 20260508135704 | 50 | 202 | 3.5 | 7.0 | 0.00 | 0.00 | 0.00 | 67 | 1010.2 |
| 20260508135203 | 50 | 175 | 5.2 | 12.2 | 0.00 | 0.00 | 0.00 | 66 | 1010.2 |
| 20260508134703 | 49 | 165 | 4.3 | 8.7 | 0.00 | 0.00 | 0.00 | 67 | 1010.2 |
| 20260508134203 | 49 | 200 | 2.6 | 6.1 | 0.00 | 0.00 | 0.00 | 67 | 1010.2 |
| 20260508133703 | 49 | 236 | 2.6 | 6.1 | 0.00 | 0.00 | 0.00 | 68 | 1010.2 |
| 20260508132703 | 48 | 190 | 2.6 | 6.1 | 0.00 | 0.00 | 0.00 | 69 | 1010.3 |
| 20260508132203 | 48 | 174 | 3.5 | 6.1 | 0.00 | 0.00 | 0.00 | 69 | 1010.3 |
| 20260508131703 | 48 | 179 | 4.3 | 7.8 | 0.00 | 0.00 | 0.00 | 69 | 1010.3 |
| 20260508131204 | 48 | 188 | 4.3 | 6.1 | 0.00 | 0.00 | 0.00 | 70 | 1010.4 |
| 20260508130703 | 47 | 231 | 4.3 | 10.4 | 0.00 | 0.00 | 0.00 | 70 | 1010.5 |
| 20260508130203 | 47 | 185 | 4.3 | 8.7 | 0.00 | 0.00 | 0.00 | 71 | 1010.5 |
| 20260508125703 | 47 | 179 | 4.3 | 10.4 | 0.00 | 0.00 | 0.00 | 72 | 1010.5 |